Precipitable_Water
0.33 0.37 0.39 0.41 0.46 0.55 0.55 0.57 0.60 0.79 1.05 1.18 1.29 1.46 1.50 1.67 1.76 1.67 1.68 1.56 1.51 1.39 1.19 1.05 0.92 0.90 0.90 0.89 0.91 0.89 0.83 0.78 0.79 0.73 0.78 0.90 1.01 1.04 1.13 1.19 1.17 1.21 1.24
0.29 0.31 0.35 0.37 0.42 0.44 0.53 0.57 0.58 0.64 0.80 1.04 1.20 1.28 1.45 1.60 1.76 1.83 1.72 1.70 1.57 1.49 1.37 1.20 1.07 0.94 0.87 0.90 0.89 0.87 0.82 0.81 0.83 0.67 0.72 0.64 0.78 0.97 1.07 1.15 1.18 1.18 1.21
0.34 0.33 0.34 0.37 0.39 0.41 0.46 0.52 0.60 0.60 0.66 0.80 1.06 1.23 1.40 1.55 1.59 1.72 1.79 1.66 1.65 1.50 1.47 1.37 1.25 1.12 0.98 0.85 0.85 0.85 0.82 0.72 0.79 0.82 0.70 0.66 0.56 0.78 0.97 1.02 1.13 1.18 1.19
0.35 0.36 0.37 0.38 0.39 0.41 0.48 0.51 0.57 0.59 0.64 0.69 0.74 0.92 1.12 1.23 1.47 1.58 1.80 1.78 1.71 1.55 1.47 1.46 1.39 1.29 1.16 0.99 0.89 0.88 0.85 0.81 0.71 0.81 0.82 0.92 0.91 0.68 0.68 0.91 1.01 1.15 1.16
0.35 0.35 0.35 0.38 0.42 0.43 0.44 0.48 0.52 0.56 0.61 0.66 0.69 0.73 0.83 1.08 1.35 1.47 1.60 1.69 1.81 1.66 1.57 1.46 1.41 1.36 1.31 1.20 1.05 0.93 0.86 0.87 0.81 0.77 0.76 0.77 0.84 0.94 0.82 0.73 0.84 1.05 1.11
0.35 0.38 0.40 0.38 0.39 0.44 0.44 0.44 0.46 0.52 0.58 0.62 0.66 0.69 0.71 0.83 1.01 1.27 1.37 1.48 1.65 1.71 1.70 1.65 1.56 1.48 1.40 1.31 1.24 1.13 0.99 0.89 0.89 0.91 0.87 0.77 0.71 0.73 0.82 0.82 0.86 0.84 0.97
0.34 0.37 0.38 0.36 0.39 0.39 0.45 0.44 0.43 0.44 0.53 0.58 0.63 0.65 0.71 0.76 0.82 0.95 1.13 1.32 1.43 1.58 1.56 1.69 1.58 1.58 1.57 1.57 1.48 1.30 1.18 1.03 0.91 0.89 0.90 0.91 0.82 0.83 0.88 0.88 0.89 0.86 0.96
0.34 0.39 0.40 0.40 0.40 0.41 0.42 0.44 0.43 0.42 0.47 0.54 0.59 0.64 0.65 0.72 0.79 0.85 0.99 1.03 1.15 1.44 1.67 1.58 1.57 1.53 1.57 1.57 1.57 1.54 1.38 1.26 1.10 0.94 0.91 0.93 0.94 0.92 0.91 0.89 0.88 0.84 0.86
0.31 0.38 0.41 0.40 0.40 0.40 0.42 0.44 0.40 0.42 0.44 0.47 0.55 0.59 0.63 0.63 0.69 0.79 0.84 0.91 0.99 1.10 1.28 1.54 1.62 1.56 1.55 1.56 1.59 1.57 1.55 1.46 1.28 1.13 1.00 0.94 0.96 1.01 0.99 0.99 0.97 0.88 0.74
0.29 0.38 0.42 0.41 0.39 0.41 0.42 0.44 0.39 0.38 0.42 0.44 0.47 0.55 0.59 0.62 0.64 0.70 0.76 0.79 0.87 0.96 1.05 1.19 1.41 1.52 1.55 1.54 1.63 1.57 1.64 1.59 1.52 1.36 1.19 1.06 1.01 1.01 1.03 1.01 1.01 1.00 0.89
0.34 0.38 0.42 0.43 0.41 0.41 0.41 0.43 0.39 0.36 0.37 0.40 0.42 0.47 0.54 0.58 0.61 0.64 0.66 0.72 0.79 0.84 0.89 0.99 1.11 1.21 1.39 1.50 1.54 1.55 1.57 1.60 1.57 1.53 1.41 1.27 1.15 1.10 1.10 1.09 1.09 1.05 1.03
0.36 0.39 0.43 0.42 0.43 0.40 0.41 0.43 0.40 0.38 0.38 0.37 0.36 0.40 0.46 0.52 0.56 0.58 0.61 0.65 0.66 0.76 0.81 0.85 0.93 1.07 1.15 1.24 1.47 1.51 1.56 1.58 1.54 1.55 1.53 1.43 1.44 1.32 1.24 1.18 1.13 1.14 1.17
0.38 0.43 0.41 0.42 0.43 0.42 0.44 0.44 0.43 0.40 0.40 0.38 0.35 0.35 0.37 0.43 0.49 0.55 0.58 0.60 0.64 0.67 0.74 0.78 0.78 0.88 0.98 1.05 1.20 1.34 1.51 1.57 1.55 1.56 1.59 1.56 1.51 1.42 1.40 1.36 1.27 1.25 1.25
0.35 0.38 0.41 0.44 0.44 0.42 0.45 0.44 0.43 0.43 0.41 0.38 0.35 0.35 0.37 0.39 0.40 0.48 0.55 0.58 0.61 0.64 0.68 0.72 0.75 0.78 0.84 0.93 0.96 1.01 1.21 1.40 1.50 1.55 1.58 1.56 1.60 1.57 1.47 1.42 1.40 1.42 1.37
0.30 0.32 0.35 0.40 0.42 0.42 0.44 0.44 0.43 0.42 0.40 0.35 0.34 0.33 0.36 0.39 0.41 0.40 0.43 0.55 0.59 0.60 0.65 0.66 0.69 0.74 0.78 0.76 0.80 0.85 0.92 1.05 1.22 1.41 1.47 1.46 1.58 1.53 1.51 1.58 1.51 1.48 1.44
0.27 0.30 0.33 0.36 0.36 0.36 0.39 0.41 0.41 0.40 0.40 0.35 0.33 0.34 0.34 0.35 0.38 0.40 0.39 0.41 0.51 0.57 0.62 0.64 0.66 0.69 0.74 0.72 0.71 0.74 0.76 0.84 0.92 1.05 1.23 1.30 1.30 1.35 1.43 1.53 1.38 1.43 1.49
0.27 0.29 0.31 0.33 0.34 0.35 0.36 0.36 0.38 0.39 0.37 0.34 0.34 0.34 0.33 0.32 0.34 0.38 0.39 0.39 0.42 0.51 0.56 0.61 0.64 0.65 0.68 0.70 0.69 0.69 0.74 0.78 0.84 0.92 1.01 1.10 1.22 1.27 1.26 1.30 1.30 1.38 1.47
0.29 0.29 0.32 0.33 0.34 0.35 0.35 0.36 0.35 0.35 0.35 0.34 0.33 0.34 0.33 0.31 0.33 0.34 0.35 0.37 0.40 0.42 0.48 0.54 0.59 0.62 0.65 0.65 0.67 0.69 0.70 0.73 0.78 0.85 0.94 0.99 1.09 1.15 1.21 1.21 1.26 1.23 1.30
0.32 0.31 0.33 0.34 0.35 0.36 0.36 0.35 0.33 0.33 0.33 0.32 0.32 0.33 0.32 0.29 0.30 0.31 0.33 0.33 0.35 0.37 0.40 0.45 0.52 0.56 0.60 0.64 0.64 0.65 0.68 0.74 0.76 0.78 0.83 0.86 0.93 1.07 1.15 1.22 1.19 1.18 1.22
0.34 0.32 0.32 0.35 0.35 0.36 0.37 0.34 0.32 0.32 0.31 0.30 0.29 0.31 0.31 0.29 0.28 0.29 0.30 0.32 0.32 0.34 0.37 0.39 0.43 0.46 0.52 0.58 0.62 0.63 0.62 0.63 0.72 0.78 0.77 0.84 0.87 0.91 1.01 0.98 1.04 1.07 1.09
0.36 0.35 0.33 0.31 0.32 0.33 0.33 0.30 0.31 0.30 0.30 0.27 0.27 0.28 0.30 0.28 0.29 0.29 0.29 0.28 0.29 0.30 0.30 0.34 0.37 0.42 0.43 0.47 0.56 0.62 0.61 0.59 0.62 0.68 0.73 0.78 0.82 0.87 0.92 0.94 0.89 0.89 1.06
0.38 0.38 0.34 0.32 0.34 0.34 0.31 0.27 0.24 0.23 0.23 0.24 0.25 0.26 0.28 0.27 0.27 0.28 0.27 0.27 0.27 0.27 0.27 0.28 0.30 0.36 0.40 0.44 0.45 0.52 0.58 0.61 0.58 0.60 0.69 0.71 0.76 0.80 0.88 0.95 0.98 0.99 0.99
0.39 0.39 0.36 0.34 0.35 0.33 0.29 0.23 0.21 0.23 0.23 0.25 0.25 0.26 0.26 0.27 0.27 0.27 0.27 0.26 0.27 0.26 0.26 0.26 0.26 0.29 0.33 0.38 0.41 0.42 0.47 0.52 0.57 0.58 0.58 0.65 0.69 0.76 0.83 0.90 0.95 0.97 0.99
0.40 0.41 0.36 0.33 0.31 0.28 0.24 0.23 0.24 0.25 0.24 0.23 0.24 0.26 0.26 0.27 0.27 0.28 0.28 0.27 0.27 0.26 0.26 0.26 0.26 0.28 0.30 0.32 0.36 0.38 0.41 0.44 0.47 0.52 0.61 0.62 0.65 0.69 0.75 0.82 0.87 0.92 0.92
0.43 0.41 0.36 0.33 0.27 0.24 0.23 0.24 0.24 0.24 0.22 0.22 0.22 0.21 0.22 0.23 0.23 0.25 0.27 0.27 0.29 0.29 0.27 0.28 0.29 0.28 0.28 0.31 0.34 0.35 0.35 0.38 0.41 0.44 0.48 0.56 0.61 0.61 0.66 0.73 0.80 0.86 0.86
0.42 0.39 0.35 0.29 0.24 0.22 0.24 0.25 0.25 0.24 0.22 0.19 0.19 0.19 0.20 0.19 0.20 0.20 0.21 0.26 0.27 0.28 0.29 0.30 0.31 0.32 0.33 0.34 0.35 0.34 0.34 0.35 0.37 0.38 0.39 0.41 0.47 0.55 0.61 0.65 0.69 0.77 0.81
Wind_Speed
24 26 28 29 30 30 30 30 30 30 32 32 32 35 37 37 37 39 40 41 40 38 36 34 32 30 28 27 25 23 22 19 18 17 16 16 16 16 15 14 14 14 13
25 26 28 29 30 32 33 32 31 31 32 34 36 36 36 39 39 39 41 41 43 42 40 38 35 34 32 31 29 28 25 24 21 19 17 16 17 17 17 15 15 15 15
24 25 26 28 29 31 33 34 34 34 33 34 36 38 38 39 39 40 39 41 42 45 44 42 40 38 36 35 33 32 31 28 26 25 20 17 17 15 17 18 17 16 16
23 23 24 25 27 29 31 34 35 35 35 35 35 36 39 38 38 41 41 42 44 45 46 46 44 42 40 39 37 35 34 33 30 28 28 25 19 18 16 18 20 19 19
22 23 23 23 24 26 28 30 33 35 36 36 36 35 37 40 41 37 40 44 41 45 46 47 47 45 44 42 41 39 38 36 35 33 30 31 28 25 22 19 19 21 22
22 22 22 21 21 22 24 27 30 33 35 35 37 36 37 38 39 40 40 40 43 42 43 45 46 45 45 45 44 43 42 41 39 38 36 33 32 30 28 26 24 23 22
22 22 22 21 21 22 22 24 26 29 33 35 36 37 37 37 38 39 41 41 39 41 47 44 44 44 46 46 46 46 46 45 43 42 40 39 37 35 33 32 30 28 27
23 23 22 22 23 22 21 21 22 25 28 32 34 36 37 38 38 38 40 40 41 42 40 45 49 46 46 46 46 46 47 48 47 46 44 42 41 39 38 36 34 33 32
25 24 23 22 21 21 20 20 20 20 23 27 31 34 36 37 38 39 39 41 41 41 43 41 46 48 47 48 48 47 46 48 49 49 48 47 45 43 42 41 40 38 36
25 23 22 21 20 20 19 19 19 19 20 21 26 31 34 37 38 39 40 39 40 41 42 43 41 45 46 47 48 51 48 48 47 49 50 49 48 47 46 45 44 43 42
20 20 20 19 19 19 19 19 19 19 19 19 20 26 30 34 37 39 41 41 42 42 42 43 43 44 44 48 48 49 53 50 48 49 49 51 50 50 49 48 47 46 45
18 17 17 18 19 19 19 19 19 20 20 20 20 20 25 30 34 38 41 42 43 43 43 43 44 44 44 44 48 49 50 52 51 50 50 50 49 51 51 50 50 49 47
18 15 14 16 18 19 20 20 21 21 20 20 21 21 21 24 28 33 38 42 43 44 45 45 45 45 45 46 47 46 50 49 53 55 51 50 50 51 49 50 51 50 50
19 15 15 16 17 18 19 21 22 22 22 22 22 22 22 23 26 29 33 38 42 44 44 45 46 46 46 46 46 48 49 50 50 50 50 52 49 51 50 50 51 50 50
21 19 18 18 18 18 19 20 21 22 23 24 24 24 24 24 24 25 29 33 37 42 44 46 46 46 46 46 47 49 50 51 53 52 51 53 48 53 51 52 51 51 51
22 20 20 21 21 20 21 22 23 23 23 23 23 23 24 24 24 24 26 28 32 38 41 44 47 47 47 48 49 50 52 53 55 56 56 54 54 54 55 49 55 55 53
22 21 21 22 22 22 23 24 25 24 24 23 23 23 23 23 24 24 25 25 28 30 35 40 43 46 48 49 50 51 52 54 55 56 57 58 58 58 56 61 54 54 58
23 22 22 22 21 21 23 25 25 25 24 24 23 23 23 23 23 23 24 25 26 27 30 33 39 42 45 48 50 51 52 53 55 55 56 57 59 59 59 58 58 58 58
22 22 22 22 21 22 24 25 24 24 24 24 24 24 24 24 23 23 23 23 25 26 27 30 33 36 40 43 46 49 51 52 54 55 56 56 58 56 55 59 58 56 54
21 22 22 22 22 23 23 24 24 24 24 25 25 24 24 24 24 23 23 22 23 24 26 29 31 34 36 40 43 46 49 52 53 53 54 55 56 58 57 57 58 60 59
22 22 22 22 22 23 24 25 25 25 25 25 25 25 25 25 24 24 24 24 23 23 24 25 28 30 33 37 40 44 45 49 51 53 53 53 54 57 59 59 58 60 56
24 23 23 23 23 24 24 25 25 25 25 25 25 26 26 26 26 26 26 25 25 24 24 24 25 27 29 31 35 39 44 47 49 51 52 53 54 54 56 57 59 58 56
25 24 24 23 24 24 25 25 26 26 27 27 27 27 28 28 29 29 29 28 27 27 26 26 26 26 26 28 30 32 37 41 46 49 52 53 54 53 52 51 55 57 55
24 24 24 24 25 25 25 26 28 28 28 28 28 29 29 30 31 31 31 31 31 30 29 28 28 27 26 26 27 29 31 34 38 42 46 48 49 49 49 49 50 50 51
24 24 24 24 25 26 26 27 27 27 27 27 28 29 31 32 32 33 34 34 33 33 32 31 30 29 28 27 28 28 28 29 32 35 38 41 44 46 46 46 46 47 47
23 23 24 24 25 26 25 25 26 27 27 28 28 29 31 32 33 33 34 34 35 35 35 34 33 31 31 30 29 29 29 29 29 29 31 34 37 40 43 44 45 45 46
Wind_Direction
288 283 278 275 271 269 269 266 262 258 253 250 247 243 241 240 239 236 235 234 232 231 230 231 231 231 232 233 233 235 236 238 239 242 245 246 247 247 248 246 244 239 236
296 289 283 279 274 270 268 266 263 260 255 252 249 246 244 242 240 239 237 235 233 231 232 232 233 233 234 234 235 235 237 239 238 240 244 247 248 247 245 244 242 240 239
301 298 290 282 278 273 268 265 263 260 257 254 250 248 245 244 241 240 239 236 235 233 233 233 234 234 235 236 236 236 236 239 239 238 241 244 246 246 244 243 242 241 241
304 302 299 291 283 278 271 265 262 261 258 256 252 250 245 244 243 241 240 239 236 234 234 234 235 236 236 237 237 238 238 238 239 239 240 243 246 246 249 246 243 243 243
306 306 304 300 293 283 276 269 263 260 258 256 252 249 247 244 243 243 241 240 233 235 235 236 236 237 238 239 238 238 238 239 239 239 242 241 244 246 248 249 246 245 246
310 309 307 305 302 295 285 276 267 260 258 256 253 249 248 246 244 243 244 243 243 235 234 235 236 237 238 239 240 240 240 240 240 241 241 241 242 243 245 248 249 249 249
308 308 309 307 306 303 298 288 277 266 259 256 253 250 248 246 245 244 243 244 245 243 237 236 237 239 239 240 240 240 240 241 241 241 242 242 243 244 245 246 249 250 250
304 305 307 307 308 307 305 301 292 278 266 257 254 251 249 246 245 245 244 244 245 246 246 242 241 242 241 242 241 241 241 241 242 242 242 243 243 244 245 246 248 251 251
298 296 300 304 307 309 308 306 305 295 281 267 258 253 250 249 247 247 246 245 247 247 247 248 245 243 244 244 243 242 243 242 242 242 243 243 244 245 245 247 248 250 253
293 291 293 299 303 308 309 308 308 306 298 287 266 258 255 251 250 249 247 247 248 248 248 248 249 246 245 245 244 242 245 244 242 243 243 244 245 246 246 247 249 250 252
298 290 289 295 299 303 306 307 308 309 305 298 291 267 261 257 254 251 250 249 249 250 250 249 249 249 249 247 246 245 244 244 244 244 244 244 244 246 247 247 249 250 251
317 299 293 294 294 298 303 306 307 308 308 304 300 292 271 263 259 255 253 252 251 250 250 250 250 249 250 250 247 245 246 245 245 245 245 245 245 246 246 248 248 250 251
333 317 305 304 302 299 299 303 305 306 306 307 303 299 292 276 268 262 257 254 253 251 250 250 251 251 251 251 250 250 247 247 246 246 247 246 246 246 247 247 248 250 251
335 323 313 313 308 305 306 303 304 304 304 304 304 303 298 292 280 271 266 259 255 253 252 251 250 251 251 250 250 250 249 248 247 248 247 247 247 247 247 249 249 250 250
326 320 313 311 308 306 307 309 310 308 305 302 300 300 298 297 293 283 273 268 261 256 254 253 252 251 251 250 252 252 251 250 250 250 248 248 250 248 249 250 251 251 251
323 318 311 308 306 304 304 307 309 310 307 308 305 303 301 297 295 292 285 277 269 262 258 256 253 252 251 252 253 254 253 253 252 252 251 251 252 251 248 250 253 252 251
323 319 317 311 305 303 303 304 305 305 305 304 305 305 305 302 299 294 292 287 279 271 263 259 256 254 253 253 254 256 254 253 253 254 253 252 252 251 255 254 257 255 252
318 318 318 317 312 311 310 305 303 302 302 302 303 303 305 305 303 299 294 290 285 278 271 267 261 259 256 255 256 256 255 254 254 254 254 254 254 254 255 256 256 258 255
313 315 316 316 315 313 314 317 309 304 300 300 300 300 302 303 304 304 302 296 290 283 279 272 268 264 260 259 258 258 256 255 255 255 255 255 255 256 256 255 255 257 257
312 313 315 314 315 317 316 316 317 311 304 300 298 298 298 301 301 302 304 303 298 291 284 279 274 270 266 263 260 259 257 256 256 256 256 255 255 256 257 258 257 255 257
306 310 311 312 314 316 317 316 315 315 312 304 298 296 296 297 298 298 300 303 302 300 294 287 282 277 273 268 266 261 259 257 256 255 256 256 258 258 257 257 256 257 259
299 303 306 307 311 314 317 317 316 316 314 312 305 298 294 294 294 294 296 298 300 300 299 296 291 284 281 276 272 266 261 260 258 256 256 258 260 259 258 256 256 257 257
294 298 302 303 307 311 313 315 315 313 312 311 308 306 297 294 293 292 291 293 295 295 296 295 295 293 288 283 279 275 270 264 260 258 259 260 259 259 258 257 257 255 256
288 294 298 301 305 308 311 312 313 313 311 309 307 306 305 298 292 290 289 287 289 290 290 291 291 292 290 287 287 283 277 273 267 264 260 258 257 257 257 256 256 255 254
285 290 295 299 302 306 308 311 313 315 315 314 312 310 308 304 299 291 287 285 284 284 285 287 287 287 287 287 287 287 284 279 275 270 264 261 258 257 256 256 255 255 255
283 289 293 298 302 305 307 309 312 314 314 315 315 315 314 312 305 299 292 286 282 282 281 282 282 281 283 285 285 286 285 283 281 275 270 265 262 260 257 255 255 255 256